Lovelock, NV

5:38 AM PDT on September 21, 2017 (GMT -0700)
Derby

Weather History for KLOL - July, 2013

Change the Weather History Date:

Saturday, July 6, 2013

  Actual Average Record
Temperature  
Mean Temperature 74 °F -  
Max Temperature 98 °F 92 °F 109 °F (2007)
Min Temperature 51 °F 53 °F 41 °F (1955)
Cooling Degree Days 10    
Growing Degree Days 24 (Base 50)    
Moisture  
Dew Point 26 °F    
Average Humidity 18    
Maximum Humidity 48    
Minimum Humidity 7    
Precipitation  
Precipitation 0.00 in - - ()
Sea Level Pressure  
Sea Level Pressure 29.71 in    
Wind  
Wind Speed 5 mph (WSW)    
Max Wind Speed 22 mph    
Max Gust Speed 21 mph    
Visibility 10 miles    
Events      
Averages and records for this station are not official NWS values.
T = Trace of Precipitation, MM = Missing Value Source: NWS Daily Summary

Daily Weather History Graph

Daily Weather History Graph

Search for Another Location

Airport or City:

Trip Planner

Search our weather history database for the weather conditions in past years. The results will help you decide how hot, cold, wet, or windy it might be!

Date:

Astronomy

Jul. 06, 2013 Rise Set
Actual Time 5:31 AM PDT 8:26 PM PDT
Civil Twilight 4:59 AM PDT 8:58 PM PDT
Nautical Twilight 4:18 AM PDT 9:39 PM PDT
Astronomical Twilight 3:30 AM PDT 10:26 PM PDT
Moon 4:21 AM PDT (7/6) 7:11 PM PDT (7/6)
Length of Visible Light 15h 59m
Length of Day
14h 54m
Waning Crescent, 2% of the Moon is Illuminated
Jul 6
Waning Crescent
Jul 8
New
Jul 15
First Quarter
Jul 22
Full
Jul 29
Last Quarter

Hourly Weather History & Observations

Time (PDT) Temp. Dew Point Humidity Pressure Visibility Wind Dir Wind Speed Gust Speed Precip Events Conditions
12:53 AM 66.0 °F 30.9 °F 27% 29.71 in 10.0 mi Variable 3.5 mph - N/A   Clear
1:53 AM 63.0 °F 30.0 °F 29% 29.72 in 10.0 mi East 3.5 mph - N/A   Clear
2:53 AM 57.0 °F 28.0 °F 33% 29.73 in 10.0 mi East 3.5 mph - N/A   Clear
3:53 AM 57.9 °F 28.9 °F 33% 29.73 in 10.0 mi Calm Calm - N/A   Clear
4:53 AM 55.0 °F 32.0 °F 42% 29.74 in 10.0 mi SSE 4.6 mph - N/A   Clear
5:53 AM 51.1 °F 32.0 °F 48% 29.75 in 10.0 mi SE 4.6 mph - N/A   Clear
6:53 AM 59.0 °F 32.0 °F 36% 29.75 in 10.0 mi Calm Calm - N/A   Clear
7:53 AM 69.1 °F 34.0 °F 27% 29.75 in 10.0 mi Calm Calm - N/A   Clear
8:53 AM 77.0 °F 34.0 °F 21% 29.75 in 10.0 mi SE 3.5 mph - N/A   Clear
9:53 AM 82.9 °F 34.0 °F 17% 29.74 in 10.0 mi Calm Calm - N/A   Clear
10:53 AM 88.0 °F 25.0 °F 10% 29.74 in 10.0 mi ENE 6.9 mph - N/A   Clear
11:53 AM 91.0 °F 24.1 °F 9% 29.73 in 10.0 mi WNW 6.9 mph - N/A   Clear
12:53 PM 93.0 °F 23.0 °F 8% 29.71 in 10.0 mi WSW 10.4 mph - N/A   Clear
1:53 PM 93.9 °F 19.9 °F 7% 29.70 in 10.0 mi SW 13.8 mph 20.7 mph N/A   Clear
2:53 PM 96.1 °F 21.0 °F 7% 29.68 in 10.0 mi WSW 9.2 mph - N/A   Clear
3:53 PM 96.1 °F 21.0 °F 7% 29.66 in 10.0 mi SSW 9.2 mph - N/A   Clear
4:53 PM 98.1 °F 23.0 °F 7% 29.64 in 10.0 mi SW 10.4 mph - N/A   Clear
5:53 PM 95.0 °F 23.0 °F 8% 29.64 in 10.0 mi Calm Calm - N/A   Clear
6:53 PM 93.9 °F 24.1 °F 8% 29.63 in 10.0 mi West 21.9 mph - N/A   Clear
7:53 PM 90.0 °F 21.9 °F 8% 29.65 in 10.0 mi West 15.0 mph - N/A   Clear
8:53 PM 82.0 °F 21.0 °F 10% 29.67 in 10.0 mi West 9.2 mph - N/A   Clear
9:53 PM 79.0 °F 21.9 °F 12% 29.70 in 10.0 mi West 9.2 mph - N/A   Clear
10:53 PM 79.0 °F 19.9 °F 11% 29.71 in 10.0 mi NNW 6.9 mph - N/A   Clear
11:53 PM 72.0 °F 19.9 °F 14% 29.74 in 10.0 mi NNW 6.9 mph - N/A   Clear